www.pogodaiklimat.ru

Погода и климат >> Архив погоды >> Украина >> Никополь


ПОГОДА в Никополе

  • Прогноз погоды в Никополе
  • Монитор погоды в Никополе

АРХИВ ПОГОДЫ в Никополе

Время (UTC), дата Ветер
(напр.,м/с)
 
Видим.   Явления Облачность Т
(С)
Тd
(С)
f
(%)
Тe
(С)
Тes
(С)
Комфортность P
(гПа)
Po
(гПа)
Тmin
(С)
Tmax
(С)
R
(мм)
R24
(мм)
S
(см)
09 12.06 СВ 4 10 км ясно +30.7 +13.3 35 +32 +44 жарко 1012.1 1005.9
12 12.06 В 4 10 км ясно +32.3 +11.7 28 +32 +42 жарко 1011.3 1005.1
15 12.06 В 4 10 км ясно +31.9 +6.9 21 +30 +33 жарко 1011.1 1004.9
18 12.06 В 2 10 км 3/1 600 м
[Sc Ac trans Ci fib]
+26.6 +13.8 45 +29 +29 жарко 1012.0 1005.7 +34.3
21 12.06 В 1 17 км 9/3 600 м
[Sc Ac trans]
+24.3 +13.9 52 +27 +27 жарко 1012.7 1006.3
00 13.06 СВ 1 10 км слаб. ливневой дождь 10/5 300 м
[Cb calv Ac und]
+21.0 +15.8 72 +26 +26 душно 1013.2 1006.7
03 13.06 ЮЗ 1 10 км в посл. час ливневой дождь 10/8 300 м
[Cb calv Ac trans Ci sp]
+19.6 +16.9 84 +23 +23 комфорт 1013.2 1006.7
06 13.06 С 3 10 км {ливн. осадки} 9/6 600 м
[Cb calv Ac trans Ci fib]
+23.4 +16.5 65 +28 +30 душно 1012.3 1005.9 +19.6 2
09 13.06 В 3 10 км 10/5 600 м
[Cb calv Ac trans Ci sp]
+29.8 +17.3 47 +34 +38 очень
душно
1012.6 1006.3
12 13.06 Ю 2 10 км 5/3 1000 м
[Cu med, cong Cc]
+33.5 +15.8 35 +36 +45 очень
душно
1012.1 1005.9
15 13.06 В 2 10 км 4/3 1000 м
[Cu med, cong Cc]
+33.6 +12.8 28 +34 +36 очень
жарко
1011.6 1005.4
18 13.06 СВ 3 10 км 5/3 600 м
[Sc Ac trans]
+27.6 +13.8 43 +30 +30 жарко 1013.9 1007.6 +35.0
21 13.06 СВ 3 17 км 4/0
[Ci sp]
+24.0 +13.3 51 +26 +26 жарко 1015.3 1008.9
00 14.06 СВ 3 17 км ясно +22.8 +15.1 62 +27 +27 душно 1015.7 1009.3
03 14.06 В 2 10 км 8/0
[Ac cast Ci fib]
+21.8 +15.4 67 +25 +26 комфорт 1016.3 1009.8
06 14.06 СВ 4 10 км 8/0
[Ci fib]
+25.3 +15.9 56 +29 +34 душно 1017.4 1011.0 +21.8
09 14.06 В 3 10 км 8/0
[Ci fib]
+28.2 +15.4 46 +31 +44 душно 1017.7 1011.4
12 14.06 В 3 10 км 6/3 1000 м
[Cu med, cong Ci fib]
+31.0 +13.9 35 +32 +40 жарко 1017.3 1011.0
15 14.06 В 3 10 км 4/4 1000 м
[Cu med, cong]
+30.9 +13.8 35 +32 +34 жарко 1016.1 1009.8
18 14.06 ЮВ 1 10 км 3/0
[Ci fib]
+27.3 +18.2 58 +32 +32 очень
душно
1016.0 1009.7 +32.7
21 14.06 СВ 1 15 км ясно +22.0 +17.4 75 +26 +26 душно 1017.1 1010.6
00 15.06 штиль 0 12 км ясно +19.6 +16.4 82 +22 +22 комфорт 1016.5 1010.0
03 15.06 штиль 0 5000 м дымка ясно +18.3 +16.8 91 +19 +20 1016.3 1009.8
06 15.06 ЮВ 2 10 км 3/0
[Ci fib]
+25.1 +16.8 60 +29 +37 душно 1016.2 1009.8 +18.3
09 15.06 СВ 2 10 км ясно +29.1 +12.8 37 +30 +49 жарко 1015.4 1009.1
12 15.06 В 2 10 км ясно +30.6 +12.2 32 +31 +46 жарко 1013.7 1007.4
18 15.06 штиль 0 10 км 4/0
[Ci fib]
+26.6 +17.3 57 +31 +31 душно 1012.3 1006.0 +31.5
21 15.06 штиль 0 15 км 3/0
[Ci fib]
+20.7 +15.5 72 +23 +23 комфорт 1012.4 1005.9
00 16.06 штиль 0 12 км ясно +20.4 +17.3 82 +23 +23 комфорт 1012.1 1005.6
03 16.06 СВ 1 10 км 3/0
[Ci fib]
+20.5 +17.7 84 +25 +26 комфорт 1011.7 1005.2
06 16.06 С 3 10 км ясно +27.5 +15.4 48 +30 +38 жарко 1011.9 1005.6 +20.4
09 16.06 С 3 10 км 1/1 1000 м
[Cu med, cong]
+31.1 +11.5 30 +31 +45 жарко 1011.5 1005.3
12 16.06 СВ 4 10 км 5/3 1000 м
[Cu hum Ci fib]
+32.1 +13.3 32 +33 +40 жарко 1011.0 1004.8
15 16.06 С 5 10 км 3/1 1000 м
[Cu hum Ci fib]
+30.9 +12.0 31 +31 +33 жарко 1010.4 1004.2
18 16.06 С 2 10 км 6/0
[Ac trans Ci fib]
+24.7 +13.6 50 +27 +27 жарко 1011.1 1004.7 +33.3
21 16.06 С 2 17 км ясно +21.0 +12.9 60 +24 +24 комфорт 1011.8 1005.4
00 17.06 В 1 15 км ясно +20.1 +15.2 73 +24 +24 комфорт 1012.6 1006.1
03 17.06 С 2 10 км ясно +19.8 +16.6 82 +23 +24 комфорт 1013.9 1007.4
06 17.06 В 4 10 км ясно +23.4 +16.9 67 +29 +35 душно 1014.6 1008.2 +19.0
09 17.06 В 3 10 км ясно +26.9 +13.5 44 +29 +44 жарко 1014.6 1008.3
12 17.06 В 4 10 км ясно +29.3 +7.7 26 +29 +38 жарко 1014.0 1007.7
15 17.06 СВ 3 10 км ясно +29.9 +9.3 28 +30 +33 жарко 1013.2 1006.9
18 17.06 СВ 1 10 км 3/0
[Ci fib]
+24.9 +11.4 43 +26 +26 жарко 1013.8 1007.4 +31.3
00 18.06 штиль 0 14 км 3/0
[Ac trans]
+16.9 +12.9 77 +17 +17 1015.4 1008.8
06 18.06 штиль 0 10 км ясно +26.7 +14.1 46 +29 +41 жарко 1015.4 1009.1 +16.9
12 18.06 ЮЗ 3 10 км 4/4 1000 м
[Cu hum]
+30.3 +13.2 35 +32 +39 жарко 1014.3 1008.0
18 18.06 штиль 0 10 км ясно +27.1 +17.6 56 +31 +31 душно 1012.8 1006.5 +32.0

 

Местоположение метеостанции Никополь (Днепропетровская область, Украина): широта 47.58 долгота 34.45 высота над уровнем моря 55 м.

В архиве по умолчанию представлена погода в Никополе за последнюю неделю. Архивные данные за месяц целиком и за предыдущие месяцы, начиная с января 2011 года, Вы можете получить, выбрав интересующий диапазон дат из раскрывающегося списка и нажав кнопку "Ввод!".


*Определитесь, кто Вы:
робот инопланетянин человек

Внимание! Время в таблицах - всемирное. Для получения местного времени необходимо прибавить поправку, которая равна 2 ч.

Смотрите также архив погоды в соседних городах и на ближайших метеорологических станциях:

Погода в Запорожье (Запорожская область, Украина) (49 км)
Погода в Лошкаревке (Днепропетровская область, Украина) (50 км)
Погода в Пришибе (Запорожская область, Украина) (75 км)
Погода в Нижних Серогозах (Херсонская область, Украина) (81 км)
Погода в Великой Александровке (Херсонская область, Украина) (93 км)
Погода в Комиссаровке (Днепропетровская область, Украина) (103 км)
Погода в Кривом Роге (Днепропетровская область, Украина) (105 км)
Погода в Мелитополе (Запорожская область, Украина) (109 км)
Погода в Днепре (Днепропетровская область, Украина) (120 км)
Погода в Синельниково (Днепропетровская область, Украина) (120 км)

Пояснения к столбцам:

Ветер - указаны скорость ветра в м/с - средняя за 10 мин, порывы в срок и между сроками (в фигурных скобках) и направление, откуда дует ветер: С - северный, СВ - северо-восточный, В - восточный, ЮВ - юго-восточный, Ю - южный, ЮЗ - юго-западный, З - западный, СЗ - северо-западный.
Видимость - горизонтальная дальность видимости в метрах или километрах. При видимости от 1 до 10 км при отсутствии осадков обычно наблюдается дымка, при ухудшении видимости до 1 км и менее - туман. В сухую погоду видимость может ухудшаться дымом, пылью или мглою.
Явления - указаны атмосферные явления, наблюдавшиеся в срок или в последний час перед сроком; фигурными скобками обозначены явления, наблюдавшиеся между сроками (за 1-3 часа до срока); квадратными скобками обозначены град или гололедные отложения с указанием их диаметра в мм.
Облачность - указаны через наклонную черту общая и нижняя облачность в баллах и высота нижней границы облаков в метрах; квадратными скобками обозначены формы облаков: Ci - перистые, Cs - перисто-слоистые, Cc - перисто-кучевые, Ac - высококучевые, As - высокослоистые, Sc - слоисто-кучевые, Ns - слоисто-дождевые, Cu - кучевые, Cb - кучево-дождевые. Подробнее классификацию облаков см. в Атласе облаков (PDF).
T - Температура воздуха - температура, измеренная на высоте 2 м над землей.
Td - Температура точки росы - температура, при понижении до которой содержащийся в воздухе водяной пар достигнет насыщения.
f - Относительная влажность воздуха - влажноcть воздуха, измеренная на высоте 2 м над землей.
Te - Эффективная температура - температура, которую ощущает одетый по сезону человек в тени. Характеристика душности погоды. При расчете учитывается влияние влажности воздуха и скорости ветра на теплоощущения человека.
Tes - Эффективная температура на солнце - температура, которую ощущает человек, с поправкой на солнечный нагрев. Характеристика знойности погоды. Зависит от высоты солнца над горизонтом, облачности и скорости ветра. Ночью, в пасмурную погоду, а также при ветре 12 м/с и более поправка равна нулю.
P - Атмосферное давление - приведенное к уровню моря атмосферное давление.
Po - Атмосферное давление - измеренное на уровне метеостанции атмосферное давление.
Tmin - Минимальная температура - минимум температуры воздуха на высоте 2 м над землей.
Tmax - Максимальная температура - максимум температуры воздуха на высоте 2 м над землей.
R - Количество осадков - Количество выпавших осадков за период времени, мм. При наведении курсора мыши на число - период времени, за который выпало указанное количество осадков.
R24 - Количество осадков - Количество выпавших осадков за 24 часа, мм.
S - Снежный покров - Высота снежного покрова, см. При наведении курсора мыши на число - состояние снежного покрова и степень покрытия местности в баллах.